EW1613 Weather Reports


Display with metric or nautical units.
time (UTC)temp
F
wind
direction
speed
MPH
gust
MPH
rain 1hr
in
rain 24hr
in
rain mn
in
humidity
%
barometer
mb
20260902041047 68 309 0.0 0.0 0.00 0.00 0.00 80 1018.4
20260902040601 68 309 0.0 0.0 0.00 0.00 0.00 80 1018.3
20260902035553 69 309 0.0 1.0 0.00 0.00 0.00 80 1018.4
20260902035053 69 309 0.0 0.0 0.00 0.00 0.00 79 1018.3
20260902034554 69 309 0.0 1.0 0.00 0.00 0.00 79 1018.3
20260902034047 69 309 0.0 2.0 0.00 0.00 0.00 79 1018.3
20260902033607 69 309 0.0 3.0 0.00 0.00 0.00 79 1018.3
20260902033101 69 309 2.0 3.0 0.00 0.00 0.00 79 1018.3
20260902032601 69 311 2.0 3.0 0.00 0.00 0.00 79 1018.3
20260902032054 69 311 0.0 2.0 0.00 0.00 0.00 79 1018.3
20260902031553 69 311 0.0 3.0 0.00 0.00 0.00 79 1018.3
20260902031047 69 311 1.0 4.0 0.00 0.00 0.00 79 1018.3
20260902030548 69 311 2.0 4.0 0.00 0.00 0.00 79 1018.3
20260902030109 69 310 0.0 3.0 0.00 0.00 0.00 80 1018.3
20260902025602 69 310 0.0 2.0 0.00 0.00 0.00 80 1018.3
20260902025056 69 310 1.0 3.0 0.00 0.00 0.00 79 1018.3
20260902024557 69 310 2.0 3.0 0.00 0.00 0.00 79 1018.3
20260902024050 69 310 2.0 3.0 0.00 0.00 0.00 79 1018.3
20260902023611 69 310 0.0 0.0 0.00 0.00 0.00 79 1018.3
20260902023051 69 310 0.0 0.0 0.00 0.00 0.00 79 1018.3
20260902022628 69 310 0.0 1.0 0.00 0.00 0.00 79 1018.3
20260902022102 69 310 0.0 1.0 0.00 0.00 0.00 79 1018.3
20260902021602 69 310 0.0 2.0 0.00 0.00 0.00 79 1018.3
20260902021055 69 310 1.0 3.0 0.00 0.00 0.00 79 1018.3
20260902020555 69 310 1.0 2.0 0.00 0.00 0.00 79 1018.3
20260902020046 69 309 0.0 2.0 0.00 0.00 0.00 80 1018.4
20260902015604 69 309 0.0 3.0 0.00 0.00 0.00 80 1018.4
20260902015105 69 309 0.0 3.0 0.00 0.00 0.00 80 1018.3
20260902014558 69 309 0.0 3.0 0.00 0.00 0.00 80 1018.3
20260902014119 69 309 0.0 4.0 0.00 0.00 0.00 80 1018.4
20260902013557 69 309 1.0 4.0 0.00 0.00 0.00 80 1018.4
20260902013058 69 309 2.0 4.0 0.00 0.00 0.00 80 1018.3
20260902012552 70 313 2.0 3.0 0.00 0.00 0.00 80 1018.3
20260902012052 70 319 1.0 2.0 0.00 0.00 0.00 79 1018.2
20260902011546 70 319 1.0 2.0 0.00 0.00 0.00 79 1018.3
20260902011107 70 318 1.0 3.0 0.00 0.00 0.00 79 1018.2
20260902010546 70 318 1.0 3.0 0.00 0.00 0.00 79 1018.3
20260902010059 70 316 0.0 2.0 0.00 0.00 0.00 79 1018.4
20260902005600 70 316 0.0 2.0 0.00 0.00 0.00 79 1018.5
20260902005121 70 315 0.0 0.0 0.00 0.00 0.00 79 1018.5
20260902004552 70 315 0.0 0.0 0.00 0.00 0.00 79 1018.5
20260902004053 70 315 0.0 0.0 0.00 0.00 0.00 79 1018.5
20260902003546 70 315 0.0 1.0 0.00 0.00 0.00 79 1018.6
20260902003048 70 315 0.0 1.0 0.00 0.00 0.00 79 1018.5
20260902002557 70 315 0.0 2.0 0.00 0.00 0.00 79 1018.4
20260902002058 70 315 1.0 2.0 0.00 0.00 0.00 79 1018.4
20260902001551 70 315 0.0 3.0 0.00 0.00 0.00 79 1018.4
20260902001051 70 315 2.0 3.0 0.00 0.00 0.00 78 1018.4
20260902000545 70 315 2.0 3.0 0.00 0.00 0.00 78 1018.4
20260902000057 70 315 1.0 3.0 0.00 0.00 0.00 78 1018.4
20260901235618 70 315 1.0 3.0 0.00 0.00 0.00 78 1018.4
20260901235114 70 315 2.0 3.0 0.00 0.00 0.00 78 1018.4
20260901234607 71 315 1.0 2.0 0.00 0.00 0.00 78 1018.4
20260901234106 71 315 0.0 2.0 0.00 0.00 0.00 78 1018.4
20260901233625 71 315 1.0 2.0 0.00 0.00 0.00 77 1018.4
20260901233045 71 315 1.0 2.0 0.00 0.00 0.00 77 1018.4
20260901232605 71 315 1.0 3.0 0.00 0.00 0.00 77 1018.4
20260901232058 71 315 1.0 3.0 0.00 0.00 0.00 77 1018.3
20260901231559 71 315 1.0 3.0 0.00 0.00 0.00 77 1018.4
20260901231054 71 314 1.0 3.0 0.00 0.00 0.00 76 1018.4
20260901230601 71 314 1.0 3.0 0.00 0.00 0.00 76 1018.4
20260901225555 71 308 0.0 2.0 0.00 0.00 0.00 75 1018.3
20260901225056 72 308 0.0 1.0 0.00 0.00 0.00 75 1018.3
20260901224550 72 308 0.0 0.0 0.00 0.00 0.00 75 1018.2
20260901224111 72 308 0.0 0.0 0.00 0.00 0.00 75 1018.2
20260901223545 72 308 0.0 1.0 0.00 0.00 0.00 74 1018.3
20260901223106 72 308 0.0 1.0 0.00 0.00 0.00 74 1018.3
20260901222616 72 308 0.0 2.0 0.00 0.00 0.00 73 1018.3
20260901222049 72 308 1.0 2.0 0.00 0.00 0.00 73 1018.3
20260901221606 72 308 1.0 2.0 0.00 0.00 0.00 73 1018.3
20260901221106 73 307 1.0 2.0 0.00 0.00 0.00 72 1018.3
20260901220600 73 307 1.0 4.0 0.00 0.00 0.00 72 1018.3
20260901220101 73 309 1.0 4.0 0.00 0.00 0.00 71 1018.4
20260901215614 73 44 0.0 0.0 0.00 0.00 0.00 70 1018.4
20260901215056 73 44 0.0 0.0 0.00 0.00 0.00 70 1018.4
20260901214555 73 44 0.0 0.0 0.00 0.00 0.00 70 1018.3
20260901214049 73 44 0.0 0.0 0.00 0.00 0.00 69 1018.2
20260901213549 73 44 0.0 0.0 0.00 0.00 0.00 69 1018.2
20260901213103 73 44 0.0 0.0 0.00 0.00 0.00 69 1018.2
20260901212604 74 44 0.0 0.0 0.00 0.00 0.00 69 1018.2
20260901212058 74 44 0.0 0.0 0.00 0.00 0.00 69 1018.2
20260901211618 74 44 0.0 0.0 0.00 0.00 0.00 69 1018.2
20260901211058 74 44 0.0 0.0 0.00 0.00 0.00 69 1018.2
20260901210612 74 44 0.0 0.0 0.00 0.00 0.00 69 1018.2
20260901210052 74 44 0.0 2.0 0.00 0.00 0.00 68 1018.2
20260901205552 74 44 0.0 3.0 0.00 0.00 0.00 68 1018.2
20260901205045 75 44 1.0 3.0 0.00 0.00 0.00 67 1018.2
20260901204606 75 14 1.0 2.0 0.00 0.00 0.00 66 1018.2
20260901204100 75 141 0.0 1.0 0.00 0.00 0.00 65 1018.1
20260901203601 75 141 0.0 2.0 0.00 0.00 0.00 65 1018.1
20260901203054 76 141 1.0 2.0 0.00 0.00 0.00 64 1018.2
20260901202554 76 141 1.0 1.0 0.00 0.00 0.00 63 1018.1
20260901202048 77 141 0.0 1.0 0.00 0.00 0.00 62 1018.0
20260901201609 77 141 0.0 0.0 0.00 0.00 0.00 61 1017.9
20260901201108 78 141 0.0 0.0 0.00 0.00 0.00 60 1017.9
20260901200602 78 141 0.0 0.0 0.00 0.00 0.00 60 1017.8
20260901195557 79 141 0.0 0.0 0.00 0.00 0.00 58 1017.8
20260901195100 79 141 0.0 0.0 0.00 0.00 0.00 58 1017.8
20260901194612 79 141 0.0 0.0 0.00 0.00 0.00 57 1017.8
20260901194052 80 141 0.0 1.0 0.00 0.00 0.00 56 1017.8
20260901193546 80 141 0.0 1.0 0.00 0.00 0.00 55 1017.6
20260901193047 80 141 0.0 0.0 0.00 0.00 0.00 55 1017.7
20260901192601 80 141 0.0 0.0 0.00 0.00 0.00 54 1017.7
20260901192118 80 141 0.0 0.0 0.00 0.00 0.00 54 1017.7
20260901191558 80 141 0.0 0.0 0.00 0.00 0.00 54 1017.6
20260901191100 81 141 0.0 0.0 0.00 0.00 0.00 53 1017.6
20260901190612 81 141 0.0 0.0 0.00 0.00 0.00 53 1017.6
20260901190052 81 141 0.0 0.0 0.00 0.00 0.00 52 1017.5
20260901185613 81 141 0.0 0.0 0.00 0.00 0.00 52 1017.4
20260901185046 82 141 0.0 0.0 0.00 0.00 0.00 51 1017.5
20260901184608 82 141 0.0 0.0 0.00 0.00 0.00 51 1017.4
20260901184102 82 141 0.0 1.0 0.00 0.00 0.00 50 1017.3
20260901183602 82 141 0.0 2.0 0.00 0.00 0.00 49 1017.4
20260901183056 82 141 1.0 2.0 0.00 0.00 0.00 49 1017.3
20260901182617 82 141 1.0 2.0 0.00 0.00 0.00 48 1017.4
20260901182117 83 133 0.0 2.0 0.00 0.00 0.00 48 1017.3
20260901181550 83 97 0.0 0.0 0.00 0.00 0.00 47 1017.2
20260901181112 83 97 0.0 0.0 0.00 0.00 0.00 47 1017.2
20260901180552 83 97 0.0 1.0 0.00 0.00 0.00 47 1017.2
20260901180046 83 96 0.0 2.0 0.00 0.00 0.00 47 1017.1
20260901175606 83 96 1.0 2.0 0.00 0.00 0.00 46 1017.1
20260901175100 83 96 1.0 2.0 0.00 0.00 0.00 46 1017.0
20260901174601 84 93 1.0 2.0 0.00 0.00 0.00 46 1017.0
20260901174055 84 92 1.0 3.0 0.00 0.00 0.00 45 1017.0
20260901173556 84 92 1.0 4.0 0.00 0.00 0.00 45 1016.9
20260901173051 84 96 1.0 4.0 0.00 0.00 0.00 45 1016.9
20260901172554 85 78 1.0 3.0 0.00 0.00 0.00 45 1016.9
20260901172045 85 68 0.0 3.0 0.00 0.00 0.00 45 1016.9
20260901171606 85 67 1.0 3.0 0.00 0.00 0.00 45 1017.0
20260901171100 85 74 1.0 4.0 0.00 0.00 0.00 44 1016.9
20260901170601 85 99 1.0 5.0 0.00 0.00 0.00 44 1016.9
20260901170115 85 103 2.0 5.0 0.00 0.00 0.00 45 1016.9
20260901165554 85 107 2.0 6.0 0.00 0.00 0.00 45 1017.0
20260901165048 85 61 1.0 6.0 0.00 0.00 0.00 45 1017.0
20260901164549 86 69 2.0 6.0 0.00 0.00 0.00 45 1017.1
20260901164110 86 84 0.0 7.0 0.00 0.00 0.00 46 1017.0
20260901163624 86 45 2.0 6.0 0.00 0.00 0.00 45 1017.0
20260901163044 86 107 2.0 6.0 0.00 0.00 0.00 46 1017.1
20260901162557 86 94 3.0 7.0 0.00 0.00 0.00 45 1017.0
20260901162058 87 67 3.0 6.0 0.00 0.00 0.00 45 1017.1
20260901161552 87 101 1.0 5.0 0.00 0.00 0.00 45 1017.1
20260901161053 87 69 1.0 7.0 0.00 0.00 0.00 45 1017.1
20260901160630 87 92 3.0 7.0 0.00 0.00 0.00 44 1017.1
20260901160109 87 155 3.0 7.0 0.00 0.00 0.00 44 1017.1
20260901155602 87 121 2.0 7.0 0.00 0.00 0.00 44 1017.2
20260901155057 87 103 2.0 9.0 0.00 0.00 0.00 44 1017.2
20260901154558 87 119 3.0 9.0 0.00 0.00 0.00 45 1017.2
20260901154052 87 103 3.0 8.0 0.00 0.00 0.00 45 1017.1
20260901153552 87 96 2.0 7.0 0.00 0.00 0.00 45 1017.2
20260901153047 87 80 2.0 7.0 0.00 0.00 0.00 45 1017.2
20260901152547 87 43 2.0 6.0 0.00 0.00 0.00 45 1017.3
20260901152107 87 92 2.0 7.0 0.00 0.00 0.00 45 1017.3
20260901151628 87 98 1.0 8.0 0.00 0.00 0.00 46 1017.3
20260901151101 87 148 4.0 8.0 0.00 0.00 0.00 46 1017.3
20260901150558 87 69 2.0 6.0 0.00 0.00 0.00 47 1017.3
20260901150052 87 67 5.0 6.0 0.00 0.00 0.00 46 1017.4
20260901145552 87 85 3.0 5.0 0.00 0.00 0.00 47 1017.4
20260901145113 87 67 1.0 8.0 0.00 0.00 0.00 46 1017.4
20260901144544 87 59 4.0 8.0 0.00 0.00 0.00 46 1017.4
20260901144105 88 69 4.0 8.0 0.00 0.00 0.00 46 1017.4
20260901143545 88 150 3.0 10.0 0.00 0.00 0.00 47 1017.4
20260901143059 88 87 3.0 10.0 0.00 0.00 0.00 47 1017.5
20260901142600 88 84 3.0 8.0 0.00 0.00 0.00 46 1017.5
20260901142053 88 119 3.0 7.0 0.00 0.00 0.00 47 1017.6
20260901141553 88 61 2.0 8.0 0.00 0.00 0.00 45 1017.6
20260901141054 89 88 3.0 8.0 0.00 0.00 0.00 45 1017.7
20260901140548 89 133 0.0 9.0 0.00 0.00 0.00 46 1017.6
20260901140109 88 132 3.0 9.0 0.00 0.00 0.00 46 1017.6
20260901135603 88 140 5.0 9.0 0.00 0.00 0.00 46 1017.7
20260901135057 87 94 1.0 9.0 0.00 0.00 0.00 47 1017.7
20260901134558 88 96 3.0 10.0 0.00 0.00 0.00 46 1017.7
20260901134052 88 78 4.0 9.0 0.00 0.00 0.00 46 1017.8
20260901133613 88 106 2.0 12.0 0.00 0.00 0.00 47 1017.8
20260901133054 87 145 4.0 12.0 0.00 0.00 0.00 48 1017.8
20260901132547 87 82 3.0 9.0 0.00 0.00 0.00 48 1017.8
20260901132106 87 82 5.0 9.0 0.00 0.00 0.00 47 1017.9
20260901131605 87 96 4.0 9.0 0.00 0.00 0.00 48 1018.0
20260901131058 87 69 3.0 8.0 0.00 0.00 0.00 48 1018.0
20260901130559 87 110 4.0 7.0 0.00 0.00 0.00 47 1017.9
20260901130053 87 52 2.0 8.0 0.00 0.00 0.00 47 1017.9
20260901125553 87 98 4.0 10.0 0.00 0.00 0.00 48 1018.1
20260901125115 88 91 2.0 8.0 0.00 0.00 0.00 47 1018.1
20260901124547 88 100 4.0 8.0 0.00 0.00 0.00 47 1018.1
20260901124108 88 97 4.0 11.0 0.00 0.00 0.00 48 1018.1
20260901123602 87 136 6.0 11.0 0.00 0.00 0.00 48 1018.1
20260901123102 87 78 2.0 11.0 0.00 0.00 0.00 49 1018.1
20260901122623 87 135 4.0 11.0 0.00 0.00 0.00 49 1018.2
20260901122056 87 113 4.0 11.0 0.00 0.00 0.00 51 1018.2
20260901121556 87 94 5.0 9.0 0.00 0.00 0.00 50 1018.2
20260901121051 87 69 3.0 10.0 0.00 0.00 0.00 52 1018.3
20260901120551 87 104 5.0 9.0 0.00 0.00 0.00 52 1018.3
20260901120044 87 123 5.0 9.0 0.00 0.00 0.00 52 1018.3
20260901115544 87 102 3.0 8.0 0.00 0.00 0.00 54 1018.4
20260901115058 86 90 3.0 9.0 0.00 0.00 0.00 54 1018.3
20260901114619 86 82 4.0 9.0 0.00 0.00 0.00 55 1018.4
20260901114058 86 116 5.0 9.0 0.00 0.00 0.00 56 1018.4
20260901113553 86 83 3.0 9.0 0.00 0.00 0.00 57 1018.3
20260901113046 86 111 2.0 14.0 0.00 0.00 0.00 56 1018.3
20260901112608 86 56 8.0 14.0 0.00 0.00 0.00 56 1018.4
20260901112048 86 103 3.0 10.0 0.00 0.00 0.00 55 1018.4
20260901111557 86 140 1.0 11.0 0.00 0.00 0.00 58 1018.4
20260901111058 85 63 5.0 11.0 0.00 0.00 0.00 58 1018.5
20260901110618 86 78 5.0 11.0 0.00 0.00 0.00 58 1018.5
20260901110056 85 86 6.0 11.0 0.00 0.00 0.00 59 1018.5
20260901105548 85 90 7.0 11.0 0.00 0.00 0.00 59 1018.5
20260901105048 85 90 6.0 10.0 0.00 0.00 0.00 59 1018.5
20260901104609 85 59 4.0 13.0 0.00 0.00 0.00 58 1018.5
20260901104044 85 95 5.0 13.0 0.00 0.00 0.00 59 1018.5
20260901103605 84 114 4.0 10.0 0.00 0.00 0.00 59 1018.6
20260901103058 84 84 6.0 10.0 0.00 0.00 0.00 59 1018.6
20260901102618 85 63 3.0 10.0 0.00 0.00 0.00 59 1018.6
20260901102118 84 90 5.0 12.0 0.00 0.00 0.00 62 1018.7
20260901101551 84 70 4.0 12.0 0.00 0.00 0.00 61 1018.7
20260901101045 84 59 5.0 13.0 0.00 0.00 0.00 60 1018.7
20260901100605 84 71 5.0 13.0 0.00 0.00 0.00 60 1018.8
20260901100105 84 40 3.0 11.0 0.00 0.00 0.00 58 1018.8
20260901095604 83 73 4.0 15.0 0.00 0.00 0.00 58 1018.7
20260901095105 83 92 6.0 15.0 0.00 0.00 0.00 58 1018.8
20260901094626 83 64 6.0 14.0 0.00 0.00 0.00 58 1018.9
20260901094058 83 87 5.0 12.0 0.00 0.00 0.00 57 1019.0
20260901093552 83 85 3.0 12.0 0.00 0.00 0.00 58 1019.0
20260901093053 82 71 6.0 12.0 0.00 0.00 0.00 58 1019.0
20260901092547 82 50 5.0 14.0 0.00 0.00 0.00 59 1019.0
20260901092108 82 40 8.0 14.0 0.00 0.00 0.00 58 1019.0
20260901091549 82 61 6.0 13.0 0.00 0.00 0.00 58 1019.0
20260901091058 82 84 7.0 13.0 0.00 0.00 0.00 56 1019.0
20260901090558 82 93 5.0 13.0 0.00 0.00 0.00 58 1019.0
20260901090050 81 58 6.0 15.0 0.00 0.00 0.00 57 1019.0
20260901085552 81 89 9.0 15.0 0.00 0.00 0.00 57 1019.0
20260901085104 81 53 6.0 12.0 0.00 0.00 0.00 58 1018.9
20260901084603 80 83 5.0 10.0 0.00 0.00 0.00 59 1018.9
20260901084103 80 98 5.0 13.0 0.00 0.00 0.00 58 1018.9
20260901083556 80 74 6.0 13.0 0.00 0.00 0.00 59 1019.0
20260901083057 80 97 6.0 12.0 0.00 0.00 0.00 59 1018.9
20260901082611 79 88 6.0 13.0 0.00 0.00 0.00 60 1018.9
20260901082051 79 42 6.0 13.0 0.00 0.00 0.00 60 1018.7
20260901081545 79 53 4.0 11.0 0.00 0.00 0.00 60 1018.7
20260901081045 79 44 6.0 13.0 0.00 0.00 0.00 59 1018.7
20260901080559 79 59 7.0 13.0 0.00 0.00 0.00 59 1018.6
20260901080059 79 90 7.0 12.0 0.00 0.00 0.00 59 1018.5
20260901075554 79 49 4.0 9.0 0.00 0.00 0.00 61 1018.6
20260901075054 78 52 4.0 9.0 0.00 0.00 0.00 60 1018.5
20260901074547 78 61 5.0 10.0 0.00 0.00 0.00 60 1018.5
20260901074048 78 61 3.0 10.0 0.00 0.00 0.00 63 1018.5
20260901073608 78 62 2.0 8.0 0.00 0.00 0.00 63 1018.4
20260901073129 77 71 2.0 6.0 0.00 0.00 0.00 63 1018.4
20260901072558 77 82 2.0 6.0 0.00 0.00 0.00 66 1018.4
20260901072052 77 16 0.0 2.0 0.00 0.00 0.00 71 1018.3
20260901071552 76 16 0.0 3.0 0.00 0.00 0.00 71 1018.3
20260901071052 76 16 0.0 5.0 0.00 0.00 0.00 72 1018.2
20260901070546 76 28 0.0 5.0 0.00 0.00 0.00 72 1018.2
20260901070047 75 13 2.0 5.0 0.00 0.00 0.00 72 1018.2
20260901065600 75 23 1.0 4.0 0.00 0.00 0.00 72 1018.3
20260901065101 75 14 1.0 4.0 0.00 0.00 0.00 72 1018.3
20260901064555 75 26 1.0 4.0 0.00 0.00 0.00 72 1018.2
20260901064057 75 5 1.0 3.0 0.00 0.00 0.00 72 1018.2
20260901063617 75 360 1.0 4.0 0.00 0.00 0.00 72 1018.1
20260901063049 75 355 1.0 4.0 0.00 0.00 0.00 72 1018.1
20260901062610 75 350 2.0 4.0 0.00 0.00 0.00 71 1018.1
20260901062044 74 5 2.0 4.0 0.00 0.00 0.00 72 1018.0
20260901061605 74 360 2.0 4.0 0.00 0.00 0.00 72 1018.0
20260901061059 73 13 3.0 4.0 0.00 0.00 0.00 73 1018.0
20260901060601 73 34 1.0 4.0 0.00 0.00 0.00 74 1017.9
20260901060114 73 31 1.0 3.0 0.00 0.00 0.00 75 1017.8
20260901055554 72 34 0.0 2.0 0.00 0.00 0.00 75 1017.7
20260901055049 72 34 1.0 2.0 0.00 0.00 0.00 75 1017.7
20260901054550 72 34 1.0 2.0 0.00 0.00 0.00 75 1017.7
20260901054059 72 34 1.0 2.0 0.00 0.00 0.00 75 1017.7
20260901053544 72 34 1.0 2.0 0.00 0.00 0.00 74 1017.7
20260901053054 71 34 0.0 0.0 0.00 0.00 0.00 74 1017.7
20260901052555 71 34 0.0 0.0 0.00 0.00 0.00 74 1017.7
20260901052116 71 34 0.0 0.0 0.00 0.00 0.00 73 1017.6
20260901051548 71 34 0.0 0.0 0.00 0.00 0.00 72 1017.5
20260901051109 71 34 0.0 0.0 0.00 0.00 0.00 73 1017.5
20260901050603 71 34 0.0 0.0 0.00 0.00 0.00 73 1017.4
20260901050104 71 34 0.0 0.0 0.00 0.00 0.00 72 1017.3
20260901045558 71 34 0.0 0.0 0.00 0.00 0.00 72 1017.3
20260901045059 71 34 0.0 0.0 0.00 0.00 0.00 72 1017.3
20260901044553 71 34 0.0 2.0 0.00 0.00 0.00 71 1017.3
20260901044053 71 34 0.0 2.0 0.00 0.00 0.00 71 1017.2
20260901043552 71 34 0.0 0.0 0.00 0.00 0.00 71 1017.2
20260901043045 71 34 0.0 0.0 0.00 0.00 0.00 70 1017.1
20260901042548 71 34 0.0 0.0 0.00 0.00 0.00 70 1017.1
20260901042101 71 34 0.0 0.0 0.00 0.00 0.00 70 1017.1
20260901041622 71 34 0.0 0.0 0.00 0.00 0.00 70 1017.0